Regional Weather Roundup
Issued by NWS Columbia, SC

Home | Current Version | Previous Version | Text Only | Print | Product List | Glossary On
Versions: 1 2 3 4 5 6 7 8 9 10 11 12 13 14 15 16 17 18 19 20 21 22 23 24 25 26 27 28
000
ASUS42 KCAE 301710
RWRCAE
REGIONAL WEATHER ROUNDUP
NATIONAL WEATHER SERVICE COLUMBIA SC
100 PM EDT SAT APR 30 2016

NOTE: "FAIR" INDICATES FEW OR NO CLOUDS BELOW 12,000 FEET WITH NO
SIGNIFICANT WEATHER AND/OR OBSTRUCTIONS TO VISIBILITY.

NOT ALL STATIONS ARE QUALITY CONTROLLED BY THE NATIONAL
WEATHER SERVICE. USE DATA WITH CAUTION...ESPECIALLY
DEWPOINT OBSERVATIONS.

SCZ001>056-GAZ040-063>065-077-301800-
...UPSTATE SOUTH CAROLINA...

CITY           SKY/WX    TMP DP  RH WIND       PRES   REMARKS
ANDERSON       PTSUNNY   81  61  50 E8        30.03S
LIBERTY        CLOUDY    78  60  54 CALM      30.04F
SPARTANBURG    MOSUNNY   77  61  57 SE3       30.06S
CLEMSON        CLOUDY    80  58  46 VRB5      30.05S
GREENVILLE     MOSUNNY   77  61  57 E5        30.06F
GREENWOOD      PTSUNNY   82  66  58 S8        30.04F
GREER          MOSUNNY   76  61  59 E8        30.05F
ROCK HILL      PTSUNNY   78  63  59 N3        30.06F
CHESTER        PTSUNNY   77  61  57 N3        30.07F
LAURENS        PTSUNNY   77  64  65 NE7       30.04F


...CENTRAL SOUTH CAROLINA...

CITY           SKY/WX    TMP DP  RH WIND       PRES   REMARKS
COLUMBIA APT   CLOUDY    83  65  54 VRB3      30.02F
COLUMBIA OWENS CLOUDY    82  65  56 CALM      30.05S
MCENTIRE ANGB  PTSUNNY   80  65  60 SW2       30.05S
ORANGEBURG     CLOUDY    83  65  54 SE10      30.03S
SUMTER SHAW    CLOUDY    81  65  59 SE8       30.03S
NEWBERRY       MOSUNNY   79  66  65 E6        30.07F
AIKEN          FAIR      82  63  51 S12       30.06F
BARNWELL       FAIR      88  66  48 SE10      30.03S
CAMDEN         FAIR      79  64  61 CALM      30.06S
LANCASTER      MOSUNNY   79  64  61 SE7       30.06F
WINNSBORO      MOSUNNY   81  63  54 SE5       30.05F


...EASTERN AND COASTAL SOUTH CAROLINA...

CITY           SKY/WX    TMP DP  RH WIND       PRES   REMARKS
MYRTLE BEACH   PTSUNNY   73  61  64 SE17      30.11F
N MYRTLE BCH   MOSUNNY   73  63  70 E15G22    30.10S
MARION         PTSUNNY   77  64  65 SE7       30.08S
HARTSVILLE     FAIR     N/A N/A N/A SE6       30.06S
FLORENCE       PTSUNNY   77  66  68 SE8       30.07F
CHARLESTON APT PTSUNNY   83  68  60 S13       30.06S
MOUNT PLEASANT FAIR      79  72  78 E8        30.07S
WALTERBORO     CLOUDY    86  64  48 SE8G17    30.05R
BEAUFORT       MOSUNNY   84  69  60 S5        30.03F


...EASTERN GEORGIA...

CITY           SKY/WX    TMP DP  RH WIND       PRES   REMARKS
AUGUSTA BUSH F MOSUNNY   86  65  49 S9        30.00F
AUGUSTA DANIEL MOSUNNY   85  62  46 SE12      30.02F
THOMSON        PTSUNNY   87  70  55 S6        30.05F
WASHINGTON     FAIR      79  64  61 CALM      30.01F
CLAXTON        FAIR      86  67  52 E7        30.01S
SYLVANIA       CLOUDY    87  69  55 SE5       30.03S
STATESBORO     PTSUNNY   89  68  50 S9        30.02S
SAVANNAH       PTSUNNY   85  64  49 SE12      30.02F


...SOUTHERN NORTH CAROLINA...

CITY           SKY/WX    TMP DP  RH WIND       PRES   REMARKS
CHARLOTTE      PTSUNNY   76  61  59 VRB3      30.07F
MONROE         PTSUNNY   77  63  61 VRB7      30.07F
WADESBORO      PTSUNNY   74  59  58 E6        30.08F
ROCKINGHAM     CLOUDY    71  62  74 E7        30.09S
RUTHERFORDTON  CLOUDY    70  61  73 E6        30.09F
ASHEVILLE      CLOUDY    70  56  61 S12       30.09F

$$




USA.gov is the U.S. government's official web portal to all federal, state and local government web resources and services.